Location: Strohbehn Observatory
(42.4649°N, 93.8239°W)
Time: 12:32:23
(UTC-05:00)

SL-16 R/B - Visible Passes

Search period start: 17 September 2014 00:00
Search period end: 27 September 2014 00:00
Orbit: 843 x 846 km, 71.0° (Epoch: 17 September)

Date Brightness Start Highest point End Pass type
(mag) Time Alt. Az. Time Alt. Az. Time Alt. Az.
17 Sep 4.8 01:48:52 15° NNE 01:48:52 15° NNE 01:49:47 10° NNE visible
18 Sep 4.9 01:35:01 13° NNE 01:35:01 13° NNE 01:35:39 10° NNE visible
19 Sep 5.0 01:21:09 12° NNE 01:21:09 12° NNE 01:21:30 10° NNE visible
20 Sep 5.1 01:07:16 11° NNE 01:07:16 11° NNE 01:07:22 10° NNE visible
